User: anonymous   Login
Location: Igri�s
(42.2144°N, 0.4320°W)
Time: 12:04:45
(UTC+00:00)
Language:

Cosmos 2061 Rocket - Orbit

View from above orbital plane
View from above orbital plane
View from above satellite
View from above satellite

Ground track
Ground track

The orbit data is extracted from the following two-line orbital elements,

1 20528U 90023B   20293.95606692 +.00000080 +00000-0 +70196-4 0  9995
2 20528 082.9359 241.4341 0030600 231.5305 192.6112 13.72880394532537
Epoch (UTC): 19 October 2020 22:56:44
Eccentricity: 0.0030600
inclination: 82.9359°
perigee height: 967 km
apogee height: 1012 km
right ascension of ascending node: 241.4341°
argument of perigee: 231.5305°
revolutions per day: 13.72880394
mean anomaly at epoch: 192.6112°
orbit number at epoch: 53253

The dashed part of the orbit path shows where the satellite is in the earth's shadow,  

DLR